Location: *
(6.0000°S, 32.3997°W)
Time: 19:35:07
(UTC+00:00)

H-2A R/B - Pass Details

Date: 01 April 2020
Orbit: 734 x 836 km, 98.2° (Epoch: 28 May)

Event Time Altitude Azimuth Distance (km) Brightness Sun altitude
Exits shadow 22:23:53 13° 349° (N) 2,177 4.4 -32.9°
Drops below altitude 10° 22:24:28 10° 349° (N) 2,404 4.7 -33.1°
Sets 22:26:47 0° 349° (NNW) 3,320 5.4 -33.7°
